JILIN-01 GAOFEN 3B (46454 NORAD) Tracking and Keplerian Element Data

This shows tracking and keplerian element data for the satellite.

Feedback or suggestion? Click here.




ElementValue
Catalog46454
NameJILIN-01 GAOFEN 3B
Epoch Orbit1163
Epoch Day336.17188448
Epoch Year2020
RAAN30.4059
Inclination97.5277
Eccentricity0.0014364
Argument of Perigee23.9208
Mean Anonmoly60.3068
Mean Motion15.0891695
Decay Rate1.724E-05
L11 46454U 20065A 20336.17188448 .00001724 00000-0 11305-3 0 9998
L22 46454 97.5277 30.4059 0014364 23.9208 60.3068 15.08916950 11633

Live tracking and technical data element details for JILIN-01 GAOFEN 3B (NORAD 46454). JILIN-01 GAOFEN 3B can be tracked NOW for your location showing map with azimuth and elevation plus other details from your city location.

Track the satellite on the map from your city or location and see movement details for azimuth, elevation, latitude, longitude, range, height, and movement on the map or in text.







IsCatalogInMostPopularTable: catalog: 46454, numindb: 22
Update: records affected: 1



GetName: 46454 JILIN-01 GAOFEN 3B

Hit Count: updated at: Tue, 01 Dec 2020 21:02:26 GMT